| time (UTC) | temp F | wind direction | speed MPH | gust MPH | rain 1hr in | rain 24hr in | rain mn in | humidity % | barometer mb |
| 20260503202517 | 61 | 248 | 4.0 | 10.0 | 0.00 | 0.00 | 0.00 | 39 | 1014.7 |
| 20260503201517 | 61 | 266 | 3.0 | 9.0 | 0.00 | 0.00 | 0.00 | 40 | 1014.9 |
| 20260503200538 | 62 | 263 | 4.0 | 9.0 | 0.00 | 0.00 | 0.00 | 42 | 1015.1 |
| 20260503195517 | 61 | 244 | 3.0 | 9.0 | 0.00 | 0.00 | 0.00 | 40 | 1015.3 |
| 20260503194517 | 61 | 255 | 4.0 | 11.0 | 0.00 | 0.00 | 0.00 | 40 | 1015.5 |
| 20260503193517 | 60 | 177 | 4.0 | 14.0 | 0.00 | 0.00 | 0.00 | 41 | 1015.7 |
| 20260503192517 | 60 | 236 | 4.0 | 13.0 | 0.00 | 0.00 | 0.00 | 40 | 1015.9 |
| 20260503191517 | 61 | 310 | 4.0 | 15.0 | 0.00 | 0.00 | 0.00 | 37 | 1016.0 |
| 20260503190517 | 60 | 222 | 4.0 | 12.0 | 0.00 | 0.00 | 0.00 | 39 | 1016.1 |
| 20260503185518 | 60 | 255 | 3.0 | 7.0 | 0.00 | 0.00 | 0.00 | 38 | 1016.4 |
| 20260503184517 | 60 | 273 | 2.0 | 11.0 | 0.00 | 0.00 | 0.00 | 37 | 1016.4 |
| 20260503183517 | 60 | 262 | 4.0 | 15.0 | 0.00 | 0.00 | 0.00 | 38 | 1016.5 |
| 20260503182518 | 60 | 268 | 3.0 | 12.0 | 0.00 | 0.00 | 0.00 | 40 | 1016.6 |
| 20260503181517 | 59 | 230 | 4.0 | 14.0 | 0.00 | 0.00 | 0.00 | 40 | 1016.7 |
| 20260503180517 | 60 | 277 | 4.0 | 8.0 | 0.00 | 0.00 | 0.00 | 39 | 1016.9 |
| 20260503175514 | 59 | 268 | 3.0 | 12.0 | 0.00 | 0.00 | 0.00 | 40 | 1017.0 |
| 20260503174517 | 59 | 251 | 3.0 | 9.0 | 0.00 | 0.00 | 0.00 | 41 | 1017.0 |
| 20260503173516 | 59 | 287 | 4.0 | 12.0 | 0.00 | 0.00 | 0.00 | 42 | 1017.2 |
| 20260503172517 | 57 | 250 | 3.0 | 8.0 | 0.00 | 0.00 | 0.00 | 47 | 1017.1 |
| 20260503171517 | 58 | 293 | 4.0 | 10.0 | 0.00 | 0.00 | 0.00 | 43 | 1017.4 |
| 20260503170516 | 59 | 227 | 4.0 | 11.0 | 0.00 | 0.00 | 0.00 | 46 | 1017.5 |
| 20260503150516 | 53 | 251 | 3.0 | 9.0 | 0.00 | 0.00 | 0.00 | 49 | 1018.7 |
| 20260503130516 | 43 | 166 | 1.0 | 4.0 | 0.00 | 0.00 | 0.00 | 77 | 1018.9 |
| 20260503110516 | 32 | 0.0 | 0.0 | 0.00 | 0.00 | 0.00 | 90 | 1017.7 | |
| 20260503081516 | 35 | 0.0 | 0.0 | 0.00 | 0.00 | 0.00 | 88 | 1017.3 | |
| 20260503080516 | 35 | 0.0 | 0.0 | 0.00 | 0.00 | 0.00 | 88 | 1017.4 | |
| 20260503072516 | 36 | 0.0 | 0.0 | 0.00 | 0.00 | 0.00 | 88 | 1017.3 | |
| 20260503071516 | 37 | 0.0 | 0.0 | 0.00 | 0.00 | 0.00 | 88 | 1017.3 | |
| 20260503070516 | 37 | 0.0 | 0.0 | 0.00 | 0.00 | 0.00 | 87 | 1017.2 | |
| 20260503054516 | 39 | 0.0 | 0.0 | 0.00 | 0.00 | 0.00 | 86 | 1017.4 | |
| 20260503053516 | 39 | 0.0 | 0.0 | 0.00 | 0.00 | 0.00 | 87 | 1017.4 | |
| 20260503052516 | 38 | 0.0 | 0.0 | 0.00 | 0.00 | 0.00 | 86 | 1017.4 | |
| 20260503051536 | 38 | 0.0 | 0.0 | 0.00 | 0.00 | 0.00 | 86 | 1017.4 | |
| 20260503050517 | 38 | 0.0 | 0.0 | 0.00 | 0.00 | 0.00 | 86 | 1017.4 | |
| 20260503045516 | 39 | 0.0 | 0.0 | 0.00 | 0.00 | 0.00 | 86 | 1017.5 | |
| 20260503044516 | 39 | 0.0 | 0.0 | 0.00 | 0.00 | 0.00 | 86 | 1017.6 | |
| 20260503043516 | 39 | 0.0 | 0.0 | 0.00 | 0.00 | 0.00 | 85 | 1017.7 | |
| 20260503042516 | 39 | 0.0 | 0.0 | 0.00 | 0.00 | 0.00 | 85 | 1017.7 | |
| 20260503041516 | 39 | 0.0 | 0.0 | 0.00 | 0.00 | 0.00 | 85 | 1017.7 | |
| 20260503040516 | 39 | 0.0 | 0.0 | 0.00 | 0.00 | 0.00 | 85 | 1017.7 | |
| 20260503035556 | 39 | 0.0 | 0.0 | 0.00 | 0.00 | 0.00 | 85 | 1017.8 | |
| 20260503034516 | 39 | 0.0 | 0.0 | 0.00 | 0.00 | 0.00 | 85 | 1017.9 | |
| 20260503033515 | 39 | 0.0 | 0.0 | 0.00 | 0.00 | 0.00 | 84 | 1017.9 | |
| 20260503032515 | 39 | 0.0 | 0.0 | 0.00 | 0.00 | 0.00 | 84 | 1018.0 | |
| 20260503031515 | 39 | 0.0 | 0.0 | 0.00 | 0.00 | 0.00 | 83 | 1017.9 | |
| 20260503030515 | 39 | 0.0 | 0.0 | 0.00 | 0.00 | 0.00 | 83 | 1017.9 | |
| 20260503025555 | 40 | 0.0 | 0.0 | 0.00 | 0.00 | 0.00 | 82 | 1017.9 | |
| 20260503024515 | 40 | 0.0 | 0.0 | 0.00 | 0.00 | 0.00 | 82 | 1017.9 | |
| 20260503023535 | 40 | 0.0 | 0.0 | 0.00 | 0.00 | 0.00 | 81 | 1018.0 | |
| 20260503022515 | 41 | 0.0 | 0.0 | 0.00 | 0.00 | 0.00 | 80 | 1018.1 | |
| 20260503021515 | 41 | 0.0 | 0.0 | 0.00 | 0.00 | 0.00 | 79 | 1018.0 | |
| 20260503020515 | 41 | 0.0 | 0.0 | 0.00 | 0.00 | 0.00 | 78 | 1018.0 | |
| 20260503015515 | 41 | 0.0 | 0.0 | 0.00 | 0.00 | 0.00 | 78 | 1017.9 | |
| 20260503014535 | 41 | 0.0 | 0.0 | 0.00 | 0.00 | 0.00 | 77 | 1018.0 | |
| 20260503013515 | 42 | 0.0 | 0.0 | 0.00 | 0.00 | 0.00 | 76 | 1017.9 | |
| 20260503012515 | 42 | 0.0 | 1.0 | 0.00 | 0.00 | 0.00 | 75 | 1017.8 | |
| 20260503011515 | 42 | 293 | 0.0 | 1.0 | 0.00 | 0.00 | 0.00 | 75 | 1017.9 |
| 20260503010515 | 42 | 293 | 0.0 | 1.0 | 0.00 | 0.00 | 0.00 | 74 | 1017.7 |
| 20260503005515 | 42 | 0.0 | 0.0 | 0.00 | 0.00 | 0.00 | 74 | 1017.7 | |
| 20260503004536 | 42 | 0.0 | 1.0 | 0.00 | 0.00 | 0.00 | 73 | 1017.6 | |
| 20260503003515 | 42 | 293 | 0.0 | 1.0 | 0.00 | 0.00 | 0.00 | 73 | 1017.5 |
| 20260503002515 | 42 | 293 | 0.0 | 1.0 | 0.00 | 0.00 | 0.00 | 72 | 1017.5 |
| 20260503001535 | 43 | 0.0 | 1.0 | 0.00 | 0.00 | 0.00 | 72 | 1017.4 | |
| 20260503000515 | 43 | 293 | 0.0 | 2.0 | 0.00 | 0.00 | 0.00 | 72 | 1017.3 |
| 20260502235515 | 43 | 292 | 0.0 | 1.0 | 0.00 | 0.00 | 0.00 | 71 | 1017.2 |
| 20260502234515 | 43 | 293 | 0.0 | 2.0 | 0.00 | 0.00 | 0.00 | 70 | 1017.2 |
| 20260502233536 | 43 | 290 | 1.0 | 2.0 | 0.00 | 0.00 | 0.00 | 70 | 1017.1 |
| 20260502232515 | 43 | 285 | 1.0 | 4.0 | 0.00 | 0.00 | 0.00 | 69 | 1017.1 |
| 20260502231515 | 44 | 284 | 1.0 | 3.0 | 0.00 | 0.00 | 0.00 | 68 | 1017.1 |
| 20260502230515 | 44 | 286 | 1.0 | 4.0 | 0.00 | 0.00 | 0.00 | 68 | 1017.1 |
| 20260502225515 | 44 | 258 | 0.0 | 2.0 | 0.00 | 0.00 | 0.00 | 68 | 1017.0 |
| 20260502224515 | 44 | 267 | 1.0 | 3.0 | 0.00 | 0.00 | 0.00 | 67 | 1017.1 |
| 20260502223515 | 44 | 274 | 1.0 | 3.0 | 0.00 | 0.00 | 0.00 | 68 | 1017.0 |
| 20260502222515 | 44 | 284 | 2.0 | 4.0 | 0.00 | 0.00 | 0.00 | 67 | 1017.1 |
| 20260502221515 | 44 | 283 | 2.0 | 5.0 | 0.00 | 0.00 | 0.00 | 67 | 1017.1 |
| 20260502220516 | 44 | 275 | 2.0 | 5.0 | 0.00 | 0.00 | 0.00 | 68 | 1017.0 |
| 20260502215515 | 44 | 278 | 2.0 | 6.0 | 0.00 | 0.00 | 0.00 | 66 | 1017.0 |
| 20260502214515 | 44 | 279 | 2.0 | 7.0 | 0.00 | 0.00 | 0.00 | 65 | 1017.0 |
| 20260502213515 | 44 | 277 | 3.0 | 7.0 | 0.00 | 0.00 | 0.00 | 68 | 1016.9 |
| 20260502212515 | 44 | 280 | 2.0 | 6.0 | 0.00 | 0.00 | 0.00 | 69 | 1016.8 |
| 20260502211515 | 44 | 269 | 1.0 | 4.0 | 0.00 | 0.00 | 0.00 | 69 | 1016.7 |
| 20260502210515 | 44 | 274 | 1.0 | 4.0 | 0.00 | 0.01 | 0.00 | 70 | 1016.7 |
| 20260502205515 | 44 | 277 | 2.0 | 7.0 | 0.00 | 0.01 | 0.00 | 68 | 1016.6 |
| 20260502204515 | 45 | 282 | 2.0 | 4.0 | 0.00 | 0.01 | 0.00 | 66 | 1016.5 |
| 20260502203535 | 46 | 281 | 2.0 | 5.0 | 0.00 | 0.01 | 0.00 | 65 | 1016.5 |